Погода в Мурзуке

Ливия     25°56′30″N   13°52′06″E
темп.,
°C
ветер,
м/с
пор.,
м/с
влажн.,
%
обл.,
%
осадки,
мм/ч
давл.,
гПа
погр.,
м
10 августа, ср
ср1023:00+33всв814173 0.0 1012284
02:00+29всв46230 0.0 101178
05:00+27всв47255 0.0 101290
08:00+28в510265 0.0 1014370
11:00+34вюв56185 0.0 10131300
14:00+37св34140 0.0 10112824
17:00+38ссв56130 0.0 10093585
20:00+35ссв69160 0.0 1010133
11 августа, чт
чт1123:00+32всв510190 0.0 1011132
02:00+29всв58240 0.0 1011101
05:00+28всв57280 0.0 1011113
08:00+28в49280 0.0 1013337
11:00+34вюв55200 0.0 10131322
14:00+37св35150 0.0 10113320
17:00+38ссв66120 0.0 10093777
20:00+34ссв58150 0.0 101089
12 августа, пт
пт1223:00+31св45180 0.0 101153
02:00+29всв611180 0.0 1011167
05:00+27в59250 0.0 1010128
08:00+27юв48240 0.0 1012266
11:00+34ююв33160 0.0 1012972
14:00+37св24140 0.0 10103417
17:00+38с44130 0.0 10093647
20:00+34всв34166 0.0 100931
13 августа, сб
сб1323:00+31вюв45180 0.0 101146
02:00+29юв44200 0.0 101032
05:00+28св45210 0.0 101148
08:00+28юв47210 0.0 1012192
11:00+36ю44130 0.0 10121117
14:00+38св23120 0.0 10103605
17:00+39с43110 0.0 10093793
20:00+35ссв33140 0.0 100913
14 августа, вс
вс1423:00+32св45160 0.0 101148
02:00+30св46190 0.0 101066
05:00+28св610300 0.0 1010184
08:00+28всв610300 0.0 1012377
11:00+35вюв56140 0.0 10121307
14:00+38в23120 0.0 10103226
17:00+39св54110 0.0 10083538
20:00+35св56170 0.0 100964